When you browse on this site, cookies collect data to enhance your experience and personalize the content and advertising you see.
Visit our Privacy Policy to learn more. By continuing to use the site, you agree to this use of cookies and data.
  • En España
  • Lista de países
  • Para 7 días
  • Temperatura del agua
  • El tiempo en el mapa
  • Informadores
  • user-avatar
    Iniciar sesión

    Tiempo cada hora Kremenec

    Hoy, 4 Junio, Jueves

    Tiempo Temperatura Precipitaciones Viento Presión Humedad
    00:00 +6°C° 0 mm 2 mps 722 mmHg 92%
    01:00 +5°C° 0 mm 2 mps 722 mmHg 93%
    02:00 +5°C° 0 mm 2 mps 722 mmHg 94%
    03:00 +5°C° 0 mm 2 mps 722 mmHg 95%
    04:00 +5°C° 0 mm 2 mps 722 mmHg 95%
    05:00 +5°C° 0 mm 2 mps 722 mmHg 96%
    06:00 +7°C° 0 mm 3 mps 722 mmHg 92%
    07:00 +9°C° 0 mm 3 mps 722 mmHg 88%
    08:00 +11°C° 0 mm 3 mps 722 mmHg 83%
    09:00 +12°C° 0.2 mm 3 mps 722 mmHg 78%
    10:00 +13°C° 0.2 mm 3 mps 722 mmHg 73%
    11:00 +16°C° 0.2 mm 3 mps 721 mmHg 69%
    12:00 +15°C° 0.5 mm 4 mps 721 mmHg 69%
    13:00 +17°C° 0.5 mm 4 mps 721 mmHg 69%
    14:00 +17°C° 0.5 mm 4 mps 721 mmHg 69%
    15:00 +17°C° 0.3 mm 4 mps 721 mmHg 70%
    16:00 +17°C° 0.3 mm 3 mps 721 mmHg 70%
    17:00 +17°C° 0.3 mm 3 mps 720 mmHg 71%
    18:00 +16°C° 0.3 mm 3 mps 720 mmHg 76%
    19:00 +14°C° 0.3 mm 3 mps 720 mmHg 82%
    20:00 +13°C° 0.3 mm 2 mps 720 mmHg 88%
    21:00 +12°C° 0.2 mm 3 mps 720 mmHg 90%
    22:00 +11°C° 0.2 mm 3 mps 720 mmHg 91%
    23:00 +11°C° 0.2 mm 3 mps 720 mmHg 93%

    Mañana, 5 Junio, Viernes

    Tiempo Temperatura Precipitaciones Viento Presión Humedad
    00:00 +11°C° 0.2 mm 3 mps 720 mmHg 93%
    01:00 +11°C° 0.2 mm 3 mps 720 mmHg 93%
    02:00 +12°C° 0.2 mm 4 mps 720 mmHg 93%
    03:00 +12°C° 0.2 mm 4 mps 720 mmHg 93%
    04:00 +13°C° 0.2 mm 4 mps 720 mmHg 93%
    05:00 +13°C° 0.2 mm 4 mps 719 mmHg 93%
    06:00 +13°C° 0.2 mm 5 mps 720 mmHg 92%
    07:00 +14°C° 0.2 mm 5 mps 720 mmHg 91%
    08:00 +14°C° 0.2 mm 5 mps 720 mmHg 90%
    09:00 +15°C° 0 mm 5 mps 721 mmHg 86%
    10:00 +16°C° 0 mm 6 mps 721 mmHg 83%
    11:00 +17°C° 0 mm 6 mps 721 mmHg 79%
    12:00 +19°C° 0 mm 6 mps 721 mmHg 77%
    13:00 +19°C° 0 mm 5 mps 722 mmHg 76%
    14:00 +20°C° 0 mm 5 mps 722 mmHg 75%
    15:00 +21°C° 0.2 mm 5 mps 722 mmHg 74%
    16:00 +21°C° 0.2 mm 5 mps 722 mmHg 73%
    17:00 +22°C° 0.2 mm 5 mps 722 mmHg 73%
    18:00 +21°C° 0.1 mm 4 mps 722 mmHg 77%
    19:00 +19°C° 0.1 mm 4 mps 722 mmHg 81%
    20:00 +18°C° 0.1 mm 3 mps 722 mmHg 85%
    21:00 +17°C° 0.1 mm 3 mps 722 mmHg 86%
    22:00 +16°C° 0.1 mm 3 mps 722 mmHg 87%
    23:00 +14°C° 0.1 mm 3 mps 723 mmHg 88%

    Pasado mañana, 6 Junio, Sábado

    Tiempo Temperatura Precipitaciones Viento Presión Humedad
    00:00 +14°C° 0 mm 3 mps 723 mmHg 84%
    01:00 +16°C° 0 mm 3 mps 723 mmHg 80%
    02:00 +16°C° 0 mm 3 mps 723 mmHg 77%
    03:00 +16°C° 0 mm 3 mps 723 mmHg 78%
    04:00 +15°C° 0 mm 4 mps 723 mmHg 79%
    05:00 +15°C° 0 mm 4 mps 724 mmHg 80%
    06:00 +15°C° 0.1 mm 4 mps 724 mmHg 82%
    07:00 +16°C° 0.1 mm 3 mps 725 mmHg 84%
    08:00 +17°C° 0.1 mm 3 mps 726 mmHg 86%
    09:00 +17°C° 0 mm 3 mps 726 mmHg 86%
    10:00 +17°C° 0 mm 2 mps 726 mmHg 86%
    11:00 +18°C° 0 mm 2 mps 727 mmHg 87%
    12:00 +18°C° 0.1 mm 2 mps 727 mmHg 84%
    13:00 +19°C° 0.1 mm 2 mps 727 mmHg 82%
    14:00 +20°C° 0.1 mm 2 mps 728 mmHg 79%
    15:00 +20°C° 0 mm 2 mps 728 mmHg 76%
    16:00 +22°C° 0 mm 1 mps 728 mmHg 73%
    17:00 +23°C° 0 mm 1 mps 728 mmHg 69%
    18:00 +21°C° 0 mm 1 mps 727 mmHg 74%
    19:00 +20°C° 0 mm 1 mps 727 mmHg 79%
    20:00 +18°C° 0 mm 2 mps 727 mmHg 83%
    21:00 +17°C° 0.1 mm 2 mps 727 mmHg 86%
    22:00 +17°C° 0.1 mm 2 mps 727 mmHg 88%
    23:00 +16°C° 0.1 mm 3 mps 727 mmHg 91%

    7 Junio, Domingo

    Tiempo Temperatura Precipitaciones Viento Presión Humedad
    00:00 +16°C° 0.2 mm 3 mps 727 mmHg 92%
    01:00 +16°C° 0.2 mm 3 mps 727 mmHg 93%
    02:00 +16°C° 0.2 mm 3 mps 727 mmHg 94%
    03:00 +15°C° 0 mm 4 mps 727 mmHg 93%
    04:00 +15°C° 0 mm 4 mps 727 mmHg 91%
    05:00 +15°C° 0 mm 4 mps 727 mmHg 89%
    06:00 +16°C° 0 mm 5 mps 727 mmHg 86%
    07:00 +17°C° 0 mm 6 mps 727 mmHg 82%
    08:00 +18°C° 0 mm 7 mps 727 mmHg 78%
    09:00 +20°C° 0 mm 7 mps 727 mmHg 74%
    10:00 +22°C° 0 mm 7 mps 728 mmHg 71%
    11:00 +23°C° 0 mm 7 mps 728 mmHg 67%
    12:00 +23°C° 0 mm 6 mps 728 mmHg 68%
    13:00 +23°C° 0 mm 6 mps 728 mmHg 70%
    14:00 +24°C° 0 mm 6 mps 728 mmHg 71%
    15:00 +24°C° 0.2 mm 6 mps 728 mmHg 73%
    16:00 +23°C° 0.2 mm 6 mps 727 mmHg 75%
    17:00 +23°C° 0.2 mm 5 mps 727 mmHg 76%
    18:00 +22°C° 0.1 mm 5 mps 728 mmHg 79%
    19:00 +21°C° 0.1 mm 4 mps 728 mmHg 82%
    20:00 +19°C° 0.1 mm 4 mps 728 mmHg 85%
    21:00 +18°C° 0 mm 4 mps 728 mmHg 86%
    22:00 +18°C° 0 mm 3 mps 728 mmHg 86%
    23:00 +17°C° 0 mm 3 mps 728 mmHg 87%

    8 Junio, Lunes

    Tiempo Temperatura Precipitaciones Viento Presión Humedad
    00:00 +16°C° 0 mm 3 mps 728 mmHg 88%
    01:00 +16°C° 0 mm 3 mps 728 mmHg 89%
    02:00 +16°C° 0 mm 3 mps 728 mmHg 89%
    03:00 +16°C° 0 mm 3 mps 728 mmHg 90%
    04:00 +16°C° 0 mm 3 mps 728 mmHg 91%
    05:00 +16°C° 0 mm 3 mps 727 mmHg 92%
    06:00 +17°C° 0.1 mm 3 mps 728 mmHg 90%
    07:00 +19°C° 0.1 mm 4 mps 728 mmHg 87%
    08:00 +20°C° 0.1 mm 4 mps 728 mmHg 84%
    09:00 +21°C° 0 mm 5 mps 728 mmHg 79%
    10:00 +22°C° 0 mm 5 mps 728 mmHg 75%
    11:00 +25°C° 0 mm 5 mps 728 mmHg 70%
    12:00 +24°C° 0.1 mm 6 mps 728 mmHg 70%
    13:00 +24°C° 0.1 mm 6 mps 727 mmHg 70%
    14:00 +26°C° 0.1 mm 6 mps 727 mmHg 70%
    15:00 +25°C° 0.9 mm 5 mps 727 mmHg 72%
    16:00 +25°C° 0.9 mm 5 mps 726 mmHg 75%
    17:00 +23°C° 0.9 mm 5 mps 726 mmHg 77%
    18:00 +22°C° 1.5 mm 4 mps 726 mmHg 80%
    19:00 +21°C° 1.5 mm 4 mps 726 mmHg 83%
    20:00 +20°C° 1.5 mm 3 mps 726 mmHg 85%
    21:00 +19°C° 0.3 mm 3 mps 726 mmHg 87%
    22:00 +18°C° 0.3 mm 3 mps 726 mmHg 90%
    23:00 +17°C° 0.3 mm 2 mps 726 mmHg 92%

    9 Junio, Martes

    Tiempo Temperatura Precipitaciones Viento Presión Humedad
    00:00 +17°C° 0 mm 2 mps 726 mmHg 92%
    01:00 +17°C° 0 mm 2 mps 726 mmHg 93%
    02:00 +16°C° 0 mm 2 mps 726 mmHg 93%
    03:00 +16°C° 0 mm 2 mps 726 mmHg 93%
    04:00 +16°C° 0 mm 2 mps 726 mmHg 93%
    05:00 +16°C° 0 mm 2 mps 726 mmHg 94%
    06:00 +17°C° 0 mm 3 mps 726 mmHg 91%
    07:00 +19°C° 0 mm 3 mps 727 mmHg 88%
    08:00 +21°C° 0 mm 3 mps 727 mmHg 85%
    09:00 +22°C° 0.4 mm 3 mps 727 mmHg 81%
    10:00 +24°C° 0.4 mm 3 mps 727 mmHg 77%
    11:00 +25°C° 0.4 mm 3 mps 728 mmHg 73%
    12:00 +26°C° 0.9 mm 3 mps 728 mmHg 71%
    13:00 +26°C° 0.9 mm 3 mps 728 mmHg 70%
    14:00 +26°C° 0.9 mm 3 mps 727 mmHg 69%
    15:00 +26°C° 0.7 mm 3 mps 728 mmHg 71%
    16:00 +26°C° 0.7 mm 3 mps 728 mmHg 73%
    17:00 +26°C° 0.7 mm 3 mps 728 mmHg 75%
    18:00 +25°C° 0.4 mm 3 mps 728 mmHg 79%
    19:00 +22°C° 0.4 mm 3 mps 728 mmHg 83%
    20:00 +21°C° 0.4 mm 3 mps 728 mmHg 87%
    21:00 +20°C° 0 mm 3 mps 728 mmHg 88%
    22:00 +20°C° 0 mm 2 mps 728 mmHg 89%
    23:00 +19°C° 0 mm 2 mps 728 mmHg 89%
    Mostrar más